Long Beach, CA

1:00 AM PDT on March 28, 2017 (GMT -0700)
Long Beach

Weather History for KLGB - January, 2014

Change the Weather History Date:

Monday, January 20, 2014

  Actual Average Record
Temperature  
Mean Temperature 63 °F 57 °F  
Max Temperature 81 °F 68 °F 85 °F (1976)
Min Temperature 45 °F 46 °F 35 °F (1973)
Degree Days  
Heating Degree Days 2 8  
Month to date heating degree days 77 168  
Since 1 July heating degree days 390 588  
Cooling Degree Days 0 0  
Month to date cooling degree days 15 0  
Year to date cooling degree days 15 0  
Growing Degree Days 13 (Base 50)    
Moisture  
Dew Point 36 °F    
Average Humidity 43    
Maximum Humidity 77    
Minimum Humidity 9    
Precipitation  
Precipitation 0.00 in 0.08 in 2.46 in (2010)
Month to date precipitation 0.00 1.72  
Year to date precipitation 0.00 1.72  
Since 1 July precipitation 1.31  
Sea Level Pressure  
Sea Level Pressure 30.11 in    
Wind  
Wind Speed 2 mph (NW)    
Max Wind Speed 12 mph    
Max Gust Speed 14 mph    
Visibility 8 miles    
Events      
T = Trace of Precipitation, MM = Missing Value Source: NWS Daily Summary

Daily Weather History Graph

Daily Weather History Graph

Search for Another Location

Airport or City:

Trip Planner

Search our weather history database for the weather conditions in past years. The results will help you decide how hot, cold, wet, or windy it might be!

Date:

Astronomy

Jan. 20, 2014 Rise Set
Actual Time 6:55 AM PST 5:11 PM PST
Civil Twilight 6:29 AM PST 5:38 PM PST
Nautical Twilight 5:58 AM PST 6:09 PM PST
Astronomical Twilight 5:28 AM PST 6:38 PM PST
Moon 9:36 PM PST (1/20) 9:11 AM PST (1/20)
Length of Visible Light 11h 09m
Length of Day
10h 16m
Waning Gibbous, 82% of the Moon is Illuminated
Jan 20
Waning Gibbous
Jan 23
Last Quarter
Jan 30
New
Feb 6
First Quarter
Feb 14
Full

Hourly Weather History & Observations

Time (PST) Temp. Windchill Dew Point Humidity Pressure Visibility Wind Dir Wind Speed Gust Speed Precip Events Conditions
12:53 AM 51.1 °F - 43.0 °F 74% 30.10 in 6.0 mi Calm Calm - N/A   Haze
1:53 AM 48.9 °F - 41.0 °F 74% 30.10 in 6.0 mi Calm Calm - N/A   Haze
2:53 AM 48.9 °F - 41.0 °F 74% 30.09 in 7.0 mi Calm Calm - N/A   Clear
3:53 AM 46.9 °F - 39.0 °F 74% 30.09 in 7.0 mi Calm Calm - N/A   Clear
4:53 AM 46.0 °F - 37.9 °F 73% 30.09 in 7.0 mi Calm Calm - N/A   Clear
5:53 AM 46.0 °F 43.9 °F 37.0 °F 71% 30.11 in 8.0 mi WNW 4.6 mph - N/A   Clear
6:53 AM 45.0 °F - 33.1 °F 63% 30.12 in 9.0 mi Calm Calm - N/A   Clear
7:53 AM 50.0 °F - 34.0 °F 54% 30.13 in 10.0 mi Calm Calm - N/A   Clear
8:53 AM 55.9 °F - 35.1 °F 45% 30.15 in 7.0 mi Calm Calm - N/A   Clear
9:53 AM 62.1 °F - 30.0 °F 30% 30.17 in 7.0 mi Calm Calm - N/A   Clear
10:53 AM 69.1 °F - 26.1 °F 20% 30.15 in 8.0 mi Calm Calm - N/A   Clear
11:53 AM 73.0 °F - 21.9 °F 15% 30.12 in 8.0 mi Calm Calm - N/A   Clear
12:53 PM 77.0 °F - 19.9 °F 12% 30.08 in 9.0 mi Calm Calm - N/A   Clear
1:38 PM 78.8 °F - 19.4 °F 11% 30.06 in 9.0 mi NW 4.6 mph - N/A   Partly Cloudy
1:53 PM 80.1 °F - 17.1 °F 9% 30.06 in 9.0 mi WNW 4.6 mph - N/A   Partly Cloudy
2:53 PM 77.0 °F - 33.1 °F 20% 30.06 in 8.0 mi SSW 5.8 mph - N/A   Clear
3:53 PM 77.0 °F - 37.9 °F 24% 30.06 in 9.0 mi WNW 6.9 mph - N/A   Clear
4:53 PM 69.1 °F - 37.0 °F 31% 30.08 in 7.0 mi NW 8.1 mph - N/A   Clear
5:53 PM 63.0 °F - 41.0 °F 45% 30.10 in 9.0 mi NW 9.2 mph - N/A   Clear
6:53 PM 61.0 °F - 45.0 °F 56% 30.12 in 8.0 mi NNW 6.9 mph - N/A   Clear
7:53 PM 59.0 °F - 43.0 °F 55% 30.14 in 8.0 mi NNE 3.5 mph - N/A   Clear
8:53 PM 57.9 °F - 44.1 °F 60% 30.15 in 8.0 mi Calm Calm - N/A   Clear
9:53 PM 57.9 °F - 45.0 °F 62% 30.17 in 8.0 mi Calm Calm - N/A   Clear
10:53 PM 57.0 °F - 46.0 °F 67% 30.17 in 8.0 mi Calm Calm - N/A   Clear
11:53 PM 55.0 °F - 44.1 °F 67% 30.16 in 7.0 mi Calm Calm - N/A   Clear